{"data":{"norad_id":55799,"intl_designator":"2023-029D","name":"ONEWEB-0562","alt_names":[],"object_type":"PAYLOAD","status":"ACTIVE","operator":null,"country":"UK","launch_date":"2023-03-09","launch_site_code":"AFETR","launch_vehicle":null,"mission":null,"orbit_class":"UNKNOWN","rcs_meters":null,"size_class":null,"mass_kg":null,"dimensions":null,"purposes":["comms"],"wikipedia_slug":null,"has_3d_model":false,"image_url":null,"decayed_at":null,"tle_current":{"epoch":"2026-05-25T02:48:37.293984Z","epoch_age_seconds":60971,"freshness":"FRESH","line1":"1 55799U 23029D   26145.11709831  .00000068  00000+0  13480-3 0  9991","line2":"2 55799  87.9164 279.0519 0002746  94.2103 265.9344 13.20772064158103","mean_motion":13.20772064,"eccentricity":0.0002746,"inclination_deg":87.9164,"raan_deg":279.0519,"arg_perigee_deg":94.2103,"mean_anomaly_deg":265.9344,"bstar":0.0001348,"rev_number":15810,"period_min":109.02713944743,"perigee_km":1179.6964635608,"apogee_km":1183.8483658113,"semimajor_km":7559.9094146861,"source":"CELESTRAK","updated_at":"2026-05-25T13:38:22.687929Z"}}}